Regional Weather Roundup
Issued by NWS Upton, NY

Home | Current Version | Previous Version | Text Only | Print | Product List | Glossary On
Versions: 1 2 3 4 5 6 7 8 9 10 11 12 13 14 15 16 17 18 19 20 21 22 23 24 25 26 27 28
000
ASUS41 KOKX 200908
RWROKX

REGIONAL WEATHER ROUNDUP
NATIONAL WEATHER SERVICE NEW YORK NY
400 AM EST MON FEB 20 2017

NOTE: "FAIR" INDICATES FEW OR NO CLOUDS BELOW 12,000 FEET WITH NO
SIGNIFICANT WEATHER AND/OR OBSTRUCTIONS TO VISIBILITY.

NYZ071-072-176-178-NJZ106-104-201000-
NEW YORK CITY METRO AREA

CITY           SKY/WX    TMP DP  RH WIND       PRES   REMARKS
Central Park   CLEAR     47  31  53 VRB6      30.07R
Wall St Helipt NOT AVBL
LaGuardia APRT CLEAR     48  32  53 NW14      30.04R
Kennedy INTL   PTCLDY    48  33  56 NW12      30.05R
Breezy Point     N/A     46 N/A N/A NW12        N/A
Newark/Liberty PTCLDY    47  32  56 W10       30.05R
Teterboro      CLEAR     46  32  58 NW7       30.05R
$$

NYZ177-179-078>081-201000-
LONG ISLAND NEW YORK

CITY           SKY/WX    TMP DP  RH WIND       PRES   REMARKS
Jones Beach      N/A     45 N/A N/A NW7         N/A
Matinecock PT    N/A     45 N/A N/A NW9         N/A
Farmingdale    CLEAR     42  31  64 N3        30.04R
MacArthur/ISP  CLEAR     35  30  82 W5        30.03R WCI  31
Shirley        CLEAR     41  31  67 NW7       30.03R
Westhampton    CLEAR     30  28  92 NW5       30.03R WCI  25
Southampton    NOT AVBL
Bridgehampton  NOT AVBL
East Hampton     N/A     41  31  67 CALM      30.00R
Montauk          N/A     42  34  73 W8        30.00R
$$

NYZ052-065-067-201000-
HUDSON VALLEY

CITY           SKY/WX    TMP DP  RH WIND       PRES   REMARKS
White Plains   CLEAR     40  31  70 W8        30.02R WCI  34
Newburgh       CLEAR     39  32  75 NW12      30.04R WCI  32
Montgomery     CLEAR     41  31  67 W9        30.03R
Poughkeepsie   CLEAR     30  27  88 CALM      30.03R
Albany         CLEAR     37  29  72 N7        30.06R WCI  32
$$

NJZ001-105-106-008-010-013-015-019>022-104-201000-
NEW JERSEY

CITY           SKY/WX    TMP DP  RH WIND       PRES   REMARKS
Newark/Liberty PTCLDY    47  32  56 W10       30.05R
Teterboro      CLEAR     46  32  58 NW7       30.05R
Caldwell       CLEAR     45  31  58 NW3       30.06R
Somerville     CLEAR     32  29  88 CALM      30.06R
Linden         NOT AVBL
Sussex         CLEAR     42  31  64 NW6       30.06R
Andover          N/A     34  29  82 CALM      30.06R
Trenton        CLEAR     45  33  63 N7        30.07R
Millville      CLEAR     33  32  96 CALM      30.07R
Atlantic City  CLEAR     40  31  70 W5        30.06R
Wrightstown    CLEAR     40  33  75 N8        30.03R WCI  35
Toms River     CLEAR     30  27  88 W3        30.06R
Belmar         CLEAR     48  33  56 NW16      30.05R
$$

PAZ047>061-062-071-201000-
EASTERN PENNSYLVANIA

CITY           SKY/WX    TMP DP  RH WIND       PRES   REMARKS
Philadelphia   CLEAR     49  32  52 N10       30.08R
Allentown      CLEAR     39  30  70 N8        30.08R WCI  33
Scranton       CLEAR     41  31  67 VRB5      30.09R
$$

CTZ002-004>006-009-010-012-RIZ004-006-007-MAZ004-011-015-201000-
SOUTHERN NEW ENGLAND
 IN CT

CITY           SKY/WX    TMP DP  RH WIND       PRES   REMARKS
Bradley INTL   PTCLDY    37  30  75 NW7       30.00R WCI  32
Hartford       PTCLDY    40  31  70 W6        30.00R
Danbury        CLEAR     28  25  88 CALM      30.03R
Wtrbury/Oxford PTCLDY    41  28  60 NW3       30.02R
Bridgeport     CLEAR     42  30  62 NW6       30.02R
Meriden        CLEAR     30  26  85 CALM      30.02R
New Haven      CLEAR     42  32  67 NW6       30.01R
Chester          N/A     43  32  65 CALM      30.00R
Groton         CLEAR     42  31  64 NW8       29.99R
Wilimantic     PTCLDY    35  28  75 CALM      29.99R

 IN RI

CITY           SKY/WX    TMP DP  RH WIND       PRES   REMARKS
Providence     CLEAR     42  30  62 NW6       29.97R
Block Island   CLEAR     42  33  70 NW8       29.98R
Westerly       PTCLDY    44  29  55 NW5       29.99R
 IN MA

CITY           SKY/WX    TMP DP  RH WIND       PRES   REMARKS
Boston         PTCLDY    43  29  57 N12       29.98R
Worcester      CLEAR     39  25  57 NW13G25   29.95R WCI  31
Westfield      PTCLDY    29  28  96 S3        29.99R
Provincetown   CLEAR     42  33  70 N16       29.96R
Nantucket      CLEAR     40  31  70 NW6       29.95R
$$

ANZ330-335-338-340-345-350-353-355-201000-
COASTAL MARINE OBSERVATIONS


STATION/POSITION TIME  SKY/WX   TEMP    WIND        PRES    VSBY  WAVE
                                AIR SEA DIR/SP/G                  HT/PER
                 (UTC)          (F)     (DEG/KT/KT) (MB)    (MI)  (FT/S)
NY HARB ENTRANCE 0750            47 42  310/ 12/ 16 1015.9          2/ 7
20 S FIRE ISLAND 0850            44 40  340/  8/  8 1016.4          2/ 7
GREAT SOUTH BAY  NOT AVBL
23 SSW MONTAUK P 0850            45 43              1015.9          3/ 7
15 E BARNEGAT LI 0830               43                N/A           3/ 7
HUDSON CANYON    0750               51              1015.7          2/ 7
KINGS POINT      0842            44 38              1017.0
EXECUTION ROCKS  NOT AVBL
CENTRAL LI SOUND 0830            43     300/  8/ 10   N/A           0
EASTERN LI SOUND NOT AVBL
ROBBINS REEF     0842            48     310/ 13/ 14 1017.4
$$


>>>>>>>>>>>>>>>>>>>>>>>>>>>> KEY <<<<<<<<<<<<<<<<<<<<<<<<<<<
>                                                          <
>     SKY/WX - Sky Condition/Present Weather               <
>     TMP    - Temperature in Fahrenheit                   <
>     DP     - Dew Point in Fahrenheit                     <
>     RH     - Relative Humidity in Percent                <
>     WIND   - Direction (from) and Speed in MPH           <
>     PRES   - Mean Sea Level Pressure (inches of Hg)      <
>     WCI    - Wind Chill Index                            <
>     VSB    - VISIBILITY IN MILES                         <
>     HX     - HEAT INDEX                                  <
>     TC     - TEMPERATURE IN CELSIUS                      <
>     VRB    - VARIABLE WIND DIRECTION                     <
>                                                          <
>>>>>>>>>>>>>>>>>>>>>>>>>>>> KEY <<<<<<<<<<<<<<<<<<<<<<<<<<<




USA.gov is the U.S. government's official web portal to all federal, state and local government web resources and services.